Starlink 30398

operational
NORAD ID: 57815 Int'l Des: 2023-138 Owner: SPXS Country: US Constellation: starlink
LEOCIRCULAR

Über Starlink 30398

Beschreibung wird geladen...

Live-Position

3D-Globus wird geladen...

Nächste Überflüge

Höhenverlauf

Altitude vs Time

uPlot chart will show altitude changes over time

Zweizeiliger Elementsatz

1 57815U 23138H 26035.11276364 -.00000110 00000-0 69437-5 0 9996
2 57815 43.0027 58.6521 0001024 280.4107 79.6620 15.02536216133569
Epoch: 4. Feb. 2026 • Age: 28 hours

Aktueller Status

Höhe 559.9 km
Geschwindigkeit 7.59 km/s
Subsatellitenpunkt 27.70°N, 33.66°W
Startdatum 9. Sept. 2023
Alter 2.4 years
Typ internet

Technische Details

Klassifizierung Payload
Masse 730.00 kg
Trockenmasse 700.00 kg
Gesamtmasse 730.00 kg
Länge 0.30 m
Durchmesser 4.10 m
Spannweite 29.00 m
Form Box + pan
Hersteller SPXS
Bus-Typ Starlink V2M
Phasenstatus In Orbit
Besitzer/Staat SPXS/US

Große Konstellationen

Loading constellations...